When you browse on this site, cookies collect data to enhance your experience and personalize the content and advertising you see.
Visit our Privacy Policy to learn more. By continuing to use the site, you agree to this use of cookies and data.
  • In Deutschland
  • Länderverzeichnis
  • Für 7 Tage
  • Wassertemperatur
  • Wetterkarte
  • Widgets
  • user-avatar
    Anmelden

    Stündliche Wetter Asadabad

    Heute, 9 Dezember, Montag

    Zeit Temperatur Niederschläge Wind Luftdruck Luftfeuchtigkeit
    00:00 +8°C° 0 mm 3 m/S 659 mmHg 24%
    01:00 +8°C° 0 mm 3 m/S 659 mmHg 23%
    02:00 +7°C° 0 mm 3 m/S 658 mmHg 22%
    03:00 +7°C° 0 mm 3 m/S 658 mmHg 21%
    04:00 +7°C° 0 mm 3 m/S 658 mmHg 20%
    05:00 +7°C° 0 mm 3 m/S 657 mmHg 18%
    06:00 +7°C° 0 mm 3 m/S 658 mmHg 19%
    07:00 +8°C° 0 mm 2 m/S 658 mmHg 20%
    08:00 +9°C° 0 mm 2 m/S 659 mmHg 20%
    09:00 +12°C° 0 mm 2 m/S 659 mmHg 18%
    10:00 +14°C° 0 mm 2 m/S 660 mmHg 15%
    11:00 +16°C° 0 mm 1 m/S 661 mmHg 13%
    12:00 +16°C° 0 mm 1 m/S 660 mmHg 12%
    13:00 +18°C° 0 mm 1 m/S 660 mmHg 12%
    14:00 +18°C° 0 mm 1 m/S 660 mmHg 12%
    15:00 +15°C° 0 mm 1 m/S 659 mmHg 18%
    16:00 +13°C° 0 mm 1 m/S 658 mmHg 23%
    17:00 +10°C° 0 mm 1 m/S 658 mmHg 28%
    18:00 +10°C° 0 mm 1 m/S 658 mmHg 28%
    19:00 +10°C° 0 mm 1 m/S 659 mmHg 28%
    20:00 +9°C° 0 mm 1 m/S 659 mmHg 29%
    21:00 +9°C° 0 mm 1 m/S 659 mmHg 28%
    22:00 +8°C° 0 mm 2 m/S 659 mmHg 27%
    23:00 +8°C° 0 mm 2 m/S 658 mmHg 26%

    Morgen, 10 Dezember, Dienstag

    Zeit Temperatur Niederschläge Wind Luftdruck Luftfeuchtigkeit
    00:00 +8°C° 0 mm 2 m/S 658 mmHg 26%
    01:00 +8°C° 0 mm 2 m/S 658 mmHg 25%
    02:00 +8°C° 0 mm 2 m/S 658 mmHg 24%
    03:00 +8°C° 0 mm 2 m/S 657 mmHg 24%
    04:00 +7°C° 0 mm 2 m/S 657 mmHg 24%
    05:00 +7°C° 0 mm 2 m/S 656 mmHg 24%
    06:00 +7°C° 0 mm 2 m/S 657 mmHg 24%
    07:00 +8°C° 0 mm 2 m/S 657 mmHg 25%
    08:00 +8°C° 0 mm 2 m/S 657 mmHg 26%
    09:00 +10°C° 0 mm 2 m/S 657 mmHg 23%
    10:00 +13°C° 0 mm 2 m/S 658 mmHg 20%
    11:00 +15°C° 0 mm 1 m/S 658 mmHg 17%
    12:00 +15°C° 0 mm 1 m/S 658 mmHg 16%
    13:00 +16°C° 0 mm 1 m/S 657 mmHg 16%
    14:00 +16°C° 0 mm 1 m/S 657 mmHg 16%
    15:00 +15°C° 0 mm 1 m/S 656 mmHg 21%
    16:00 +13°C° 0 mm 1 m/S 656 mmHg 25%
    17:00 +12°C° 0 mm 1 m/S 655 mmHg 30%
    18:00 +11°C° 0 mm 1 m/S 655 mmHg 34%
    19:00 +11°C° 0 mm 1 m/S 655 mmHg 38%
    20:00 +9°C° 0 mm 2 m/S 656 mmHg 42%
    21:00 +8°C° 0.1 mm 2 m/S 656 mmHg 47%
    22:00 +8°C° 0.1 mm 2 m/S 656 mmHg 52%
    23:00 +8°C° 0.1 mm 2 m/S 656 mmHg 56%

    übermorgen, 11 Dezember, Mittwoch

    Zeit Temperatur Niederschläge Wind Luftdruck Luftfeuchtigkeit
    00:00 +7°C° 0.1 mm 2 m/S 655 mmHg 62%
    01:00 +7°C° 0.1 mm 2 m/S 655 mmHg 67%
    02:00 +6°C° 0.1 mm 2 m/S 655 mmHg 73%
    03:00 +6°C° 0 mm 2 m/S 655 mmHg 75%
    04:00 +6°C° 0 mm 1 m/S 655 mmHg 77%
    05:00 +6°C° 0 mm 1 m/S 655 mmHg 78%
    06:00 +6°C° 0 mm 1 m/S 655 mmHg 75%
    07:00 +7°C° 0 mm 1 m/S 655 mmHg 72%
    08:00 +7°C° 0 mm 1 m/S 656 mmHg 68%
    09:00 +8°C° 0 mm 1 m/S 656 mmHg 61%
    10:00 +10°C° 0 mm 1 m/S 656 mmHg 55%
    11:00 +12°C° 0 mm 1 m/S 656 mmHg 48%
    12:00 +12°C° 0 mm 1 m/S 656 mmHg 47%
    13:00 +12°C° 0 mm 1 m/S 656 mmHg 46%
    14:00 +13°C° 0 mm 1 m/S 655 mmHg 45%
    15:00 +12°C° 0 mm 1 m/S 655 mmHg 51%
    16:00 +11°C° 0 mm 1 m/S 655 mmHg 56%
    17:00 +9°C° 0 mm 0 m/S 654 mmHg 61%
    18:00 +9°C° 0 mm 0 m/S 655 mmHg 62%
    19:00 +9°C° 0 mm 1 m/S 655 mmHg 62%
    20:00 +9°C° 0 mm 1 m/S 656 mmHg 63%
    21:00 +9°C° 0 mm 1 m/S 656 mmHg 63%
    22:00 +8°C° 0 mm 1 m/S 655 mmHg 62%
    23:00 +8°C° 0 mm 1 m/S 655 mmHg 62%

    12 Dezember, Donnerstag

    Zeit Temperatur Niederschläge Wind Luftdruck Luftfeuchtigkeit
    00:00 +7°C° 0.1 mm 2 m/S 655 mmHg 65%
    01:00 +7°C° 0.1 mm 2 m/S 655 mmHg 68%
    02:00 +7°C° 0.1 mm 3 m/S 655 mmHg 71%
    03:00 +7°C° 0.1 mm 3 m/S 655 mmHg 73%
    04:00 +7°C° 0.1 mm 3 m/S 655 mmHg 74%
    05:00 +5°C° 0.1 mm 3 m/S 654 mmHg 75%
    06:00 +7°C° 0 mm 3 m/S 654 mmHg 72%
    07:00 +7°C° 0 mm 3 m/S 654 mmHg 68%
    08:00 +7°C° 0 mm 3 m/S 655 mmHg 64%
    09:00 +7°C° 0.9 mm 3 m/S 654 mmHg 71%
    10:00 +7°C° 0.9 mm 3 m/S 654 mmHg 78%
    11:00 +5°C° 0.9 mm 4 m/S 654 mmHg 84%
    12:00 +5°C° 1.4 mm 4 m/S 653 mmHg 86%
    13:00 +5°C° 1.4 mm 3 m/S 653 mmHg 88%
    14:00 +5°C° 1.4 mm 3 m/S 652 mmHg 90%
    15:00 +5°C° 0.4 mm 3 m/S 652 mmHg 88%
    16:00 +6°C° 0.4 mm 2 m/S 652 mmHg 87%
    17:00 +6°C° 0.4 mm 2 m/S 652 mmHg 85%
    18:00 +7°C° 1 mm 1 m/S 652 mmHg 88%
    19:00 +7°C° 1 mm 1 m/S 652 mmHg 91%
    20:00 +6°C° 1 mm 1 m/S 652 mmHg 94%
    21:00 +6°C° 2 mm 1 m/S 652 mmHg 94%
    22:00 +4°C° 2 mm 2 m/S 652 mmHg 95%
    23:00 +4°C° 2 mm 2 m/S 652 mmHg 96%

    13 Dezember, Freitag

    Zeit Temperatur Niederschläge Wind Luftdruck Luftfeuchtigkeit
    00:00 +4°C° 2.9 mm 2 m/S 652 mmHg 96%
    01:00 +4°C° 2.9 mm 2 m/S 651 mmHg 97%
    02:00 +4°C° 2.9 mm 2 m/S 651 mmHg 97%
    03:00 +4°C° 1.4 mm 2 m/S 651 mmHg 97%
    04:00 +5°C° 1.4 mm 1 m/S 651 mmHg 97%
    05:00 +5°C° 1.4 mm 1 m/S 651 mmHg 97%
    06:00 +5°C° 0.7 mm 1 m/S 651 mmHg 97%
    07:00 +5°C° 0.7 mm 1 m/S 652 mmHg 97%
    08:00 +5°C° 0.7 mm 1 m/S 652 mmHg 97%
    09:00 +5°C° 0.2 mm 1 m/S 653 mmHg 96%
    10:00 +6°C° 0.2 mm 1 m/S 653 mmHg 95%
    11:00 +6°C° 0.2 mm 1 m/S 653 mmHg 94%
    12:00 +6°C° 0.2 mm 1 m/S 653 mmHg 93%
    13:00 +7°C° 0.2 mm 1 m/S 652 mmHg 92%
    14:00 +7°C° 0.2 mm 1 m/S 652 mmHg 90%
    15:00 +6°C° 0.1 mm 0 m/S 652 mmHg 91%
    16:00 +5°C° 0.1 mm 0 m/S 653 mmHg 91%
    17:00 +5°C° 0.1 mm 0 m/S 653 mmHg 92%
    18:00 +5°C° 0.2 mm 0 m/S 654 mmHg 93%
    19:00 +6°C° 0.2 mm 1 m/S 655 mmHg 93%
    20:00 +6°C° 0.2 mm 1 m/S 655 mmHg 94%
    21:00 +6°C° 0.1 mm 1 m/S 656 mmHg 93%
    22:00 +6°C° 0.1 mm 1 m/S 656 mmHg 92%
    23:00 +6°C° 0.1 mm 1 m/S 657 mmHg 90%

    14 Dezember, Samstag

    Zeit Temperatur Niederschläge Wind Luftdruck Luftfeuchtigkeit
    00:00 +5°C° 0 mm 1 m/S 657 mmHg 89%
    01:00 +5°C° 0 mm 1 m/S 657 mmHg 89%
    02:00 +5°C° 0 mm 1 m/S 657 mmHg 88%
    03:00 +5°C° 0.1 mm 1 m/S 657 mmHg 88%
    04:00 +5°C° 0.1 mm 1 m/S 658 mmHg 89%
    05:00 +5°C° 0.1 mm 1 m/S 658 mmHg 90%
    06:00 +5°C° 0 mm 1 m/S 658 mmHg 87%
    07:00 +5°C° 0 mm 1 m/S 659 mmHg 85%
    08:00 +5°C° 0 mm 1 m/S 659 mmHg 83%
    09:00 +6°C° 0 mm 1 m/S 659 mmHg 83%
    10:00 +6°C° 0 mm 1 m/S 659 mmHg 84%
    11:00 +7°C° 0 mm 1 m/S 659 mmHg 84%
    12:00 +7°C° 0.1 mm 1 m/S 659 mmHg 83%
    13:00 +7°C° 0.1 mm 1 m/S 659 mmHg 82%
    14:00 +8°C° 0.1 mm 1 m/S 658 mmHg 81%
    15:00 +7°C° 0.1 mm 2 m/S 658 mmHg 81%
    16:00 +6°C° 0.1 mm 2 m/S 658 mmHg 81%
    17:00 +6°C° 0.1 mm 2 m/S 658 mmHg 81%
    18:00 +6°C° 0.1 mm 2 m/S 658 mmHg 82%
    19:00 +6°C° 0.1 mm 2 m/S 658 mmHg 84%
    20:00 +5°C° 0.1 mm 2 m/S 659 mmHg 85%
    21:00 +5°C° 0.2 mm 2 m/S 659 mmHg 86%
    22:00 +5°C° 0.2 mm 2 m/S 659 mmHg 87%
    23:00 +5°C° 0.2 mm 2 m/S 659 mmHg 88%
    Mehr zeigen